Home   Weather   Rottenburg am Neckar   Past weeks

Flag for Germany Past Weather in Rottenburg am Neckar, Baden-Württemberg, Germany — Yesterday and Last 2 Weeks

Now
59 °F

Partly sunny.


Feels Like: 58 °F
Forecast: 46 / 72 °F
Wind: 6 mph from Northwest

Location: Stuttgart-Echterdingen

Current Time: Sep 27, 2016 at 12:33:48 PM

Latest Report: Sep 27, 2016 at 12:20 PM


Visibility: N/A

Pressure: 30.33 "Hg

Humidity: 88%

Dew Point: 55 °F

Location of Rottenburg am NeckarLocation

Past Weather in Rottenburg am Neckar — Graph

°F

Rottenburg am Neckar Temperature Yesterday

Maximum temperature yesterday: 63 °F (at 1:50 PM)
Minimum temperature yesterday: 57 °F (at 12:20 AM)
Average temperature yesterday: 59 °F

High & Low Weather Summary for the Past Weeks

 TemperatureHumidityPressure
High88 °F (Sep 12, 4:50 PM)100% (Sep 13, 5:50 AM)30.33 "Hg (Sep 13, 5:50 AM)
Low41 °F (Sep 22, 5:50 AM)29% (Sep 13, 3:50 PM)29.83 "Hg (Sep 15, 3:20 AM)
Average61 °F75%30.07 "Hg
* Reported Sep 12 11:20 AM — Sep 27 11:20 AM, Rottenburg am Neckar, Weather by CustomWeather, © 2016

Note: Actual official high and low records may vary slightly from our data, if they occured in-between our weather recording intervals... More about our weather records

Advertising

Rottenburg am Neckar Weather History for the Previous 24 Hours

Scroll right to see more
 ConditionsComfort  
Time TempWeatherWind HumidityBarometerVisibility
11:20 AM
Tue, Sep 27
59 °FPartly sunny.2 mph88%30.30 "HgN/A
10:50 AM59 °FPartly sunny.2 mph88%30.30 "HgN/A
10:20 AM59 °FBroken clouds.1 mph88%30.30 "HgN/A
9:50 AM57 °FBroken clouds.2 mph94%30.30 "HgN/A
9:20 AM57 °FSprinkles. Partly sunny.5 mph94%30.27 "HgN/A
8:50 AM55 °FSprinkles. Partly sunny.1 mph94%30.27 "HgN/A
8:20 AM55 °FPartly sunny.2 mph94%30.27 "HgN/A
7:50 AM57 °FThundershowers. Partly sunny.8 mph94%30.27 "Hg3 mi
7:20 AM57 °FThundershowers. Partly sunny.6 mph88%30.24 "Hg4 mi
6:50 AM59 °FThundershowers. Passing clouds.7 mph82%30.24 "Hg4 mi
6:20 AM59 °FSprinkles. Partly cloudy.3 mph94%30.24 "Hg4 mi
5:50 AM57 °FPassing clouds.1 mph100%30.21 "Hg4 mi
5:20 AM57 °FFog.2 mph94%30.21 "Hg3 mi
4:50 AM57 °FFog.1 mph94%30.21 "Hg2 mi
4:20 AM57 °FFog.2 mph94%30.21 "Hg2 mi
3:50 AM55 °FFog.2 mph100%30.21 "Hg3 mi
3:20 AM57 °FFog.2 mph94%30.21 "Hg3 mi
2:50 AM57 °FFog.3 mph94%30.21 "Hg3 mi
2:20 AM55 °FPassing clouds.1 mph100%30.21 "Hg4 mi
1:50 AM57 °FPassing clouds.1 mph94%30.21 "Hg5 mi
1:20 AM57 °FPartly cloudy.2 mph94%30.21 "Hg5 mi
12:50 AM57 °FPartly cloudy.1 mph94%30.21 "Hg6 mi
12:20 AM57 °FPartly cloudy.1 mph94%30.21 "Hg6 mi
11:50 PM
Mon, Sep 26
59 °FPassing clouds.2 mph88%30.21 "Hg6 mi
11:20 PM59 °FPassing clouds.2 mph94%30.21 "Hg6 mi
10:50 PM59 °FPassing clouds.1 mph94%30.21 "Hg6 mi
10:20 PM59 °FPassing clouds.2 mph94%30.21 "Hg6 mi
9:50 PM59 °FPassing clouds.2 mph94%30.21 "HgN/A
9:20 PM59 °FPassing clouds.3 mph94%30.21 "HgN/A
8:50 PM59 °FPassing clouds.5 mph94%30.21 "HgN/A
8:20 PM61 °FPassing clouds.2 mph88%30.18 "HgN/A
7:50 PM61 °FPassing clouds.2 mph88%30.18 "HgN/A
7:20 PM61 °FPassing clouds.7 mph88%30.18 "HgN/A
6:50 PM61 °FPartly sunny.6 mph83%30.18 "HgN/A
6:20 PM61 °FPartly sunny.7 mph88%30.18 "HgN/A
5:50 PM61 °FPartly sunny.8 mph88%30.18 "HgN/A
5:20 PM61 °FPartly sunny.7 mph88%30.18 "HgN/A
4:50 PM63 °FPartly sunny.7 mph83%30.18 "HgN/A
4:20 PM63 °FPartly sunny.6 mph83%30.18 "HgN/A
3:50 PM63 °FBroken clouds.7 mph83%30.18 "HgN/A
3:20 PM63 °FBroken clouds.6 mph83%30.18 "HgN/A
2:50 PM63 °FBroken clouds.5 mph83%30.18 "HgN/A
2:20 PM63 °FBroken clouds.3 mph83%30.18 "HgN/A
1:50 PM63 °FBroken clouds.2 mph83%30.18 "HgN/A
1:20 PM61 °FBroken clouds.2 mph88%30.21 "HgN/A
12:50 PM59 °FBroken clouds.2 mph88%30.21 "HgN/A
12:20 PM59 °FBroken clouds.3 mph88%30.21 "HgN/A
Weather by CustomWeather, © 2016

See weather overviewHow to use our weather pages